User: anonymous
Location: Unspecified
(0.0000°N, 0.0000°E)
Time: 23:35:46
(UTC+02:00)
Language:

Cosmos 1263 Rocket - Orbit

View from above orbital plane
View from above orbital plane
View from above satellite
View from above satellite

Ground track
Ground track

The orbit data is extracted from the following two-line orbital elements,

1 12389U 81033B   14294.26041257  .00066324  00000-0  82746-3 0  1257
2 12389 082.8722 345.3660 0179894 019.3627 021.4595 15.42621190729080
Epoch (UTC): 21 October 2014 06:14:59
Eccentricity: 0.0179894
inclination: 82.8722°
perigee height: 316 km
apogee height: 561 km
right ascension of ascending node: 345.3660°
argument of perigee: 19.3627°
revolutions per day: 15.42621190
mean anomaly at epoch: 21.4595°
orbit number at epoch: 72908

The dashed part of the orbit path shows where the satellite is in the earth's shadow,  

DLR